Wind_Speed
16 15 13 13 13 13 14 14 14 14 13 11 10 10 10 9 8 7 7 6 5 5 6 7 7 8 9 9 9 9 9 10 9 8 8 8 8 8 8 9 9 8 8 8 8 7 8 7 7
15 15 14 14 15 14 14 15 15 14 13 12 11 10 10 8 8 8 7 5 5 6 7 7 8 8 8 9 9 9 9 9 8 8 7 7 7 8 8 8 7 8 8 8 7 7 7 7 7
15 15 15 15 15 15 16 16 15 14 14 12 12 11 10 9 8 7 6 6 5 6 7 7 8 8 8 9 9 9 9 9 8 8 7 7 7 8 8 7 7 7 7 7 7 6 6 6 6
14 14 15 15 15 15 16 16 16 15 14 13 12 12 10 9 8 8 7 6 6 6 7 7 7 8 8 8 9 9 9 9 8 8 8 8 7 7 6 6 7 7 7 6 6 6 5 5 5
13 14 14 15 15 15 15 16 16 15 14 14 13 12 10 9 8 7 7 7 6 7 8 7 7 7 8 9 9 9 8 8 8 8 8 7 6 6 6 6 6 6 6 6 6 6 5 4 4
12 13 13 14 15 15 15 16 16 15 15 14 13 12 10 9 8 7 8 7 7 8 8 8 8 7 8 8 8 8 8 8 7 8 6 6 6 6 5 5 5 5 5 5 5 5 4 4 3
11 12 13 14 15 15 15 16 16 15 15 15 14 13 11 10 8 7 7 7 7 7 7 7 7 7 7 7 7 7 7 7 7 6 6 6 5 5 4 4 4 4 4 4 4 4 3 3 3
11 12 13 14 15 15 15 15 15 15 15 15 15 14 12 11 9 8 7 7 7 7 7 7 7 7 7 7 8 8 7 7 7 7 6 6 5 5 4 4 4 3 2 2 2 2 2 2 2
12 13 14 14 14 15 14 15 15 15 15 14 15 15 13 11 10 8 7 7 7 7 7 7 7 7 8 8 8 8 8 7 7 6 6 5 5 4 4 3 4 3 2 1 1 1 2 1 1
11 12 13 13 14 14 14 14 15 14 14 14 14 14 14 12 10 9 8 7 7 7 7 7 7 7 8 8 8 8 8 7 6 6 6 5 5 4 3 3 3 3 2 2 1 1 1 1 1
9 10 11 12 13 13 13 13 14 14 14 13 13 13 12 12 11 10 8 7 7 7 7 7 7 7 7 7 7 8 8 8 7 7 6 5 5 4 4 3 2 2 2 1 1 1 1 0 1
7 8 9 10 11 13 13 13 13 14 14 13 12 12 12 11 11 10 9 8 7 7 7 6 6 6 7 6 7 6 7 7 7 6 6 6 5 4 3 2 2 2 1 1 1 1 0 1 1
6 8 8 8 9 11 12 12 12 13 13 13 12 11 12 11 10 10 9 8 7 7 7 7 6 6 6 7 7 7 7 6 6 6 6 6 5 4 3 2 1 1 1 0 0 1 1 2 2
5 6 6 6 7 8 9 10 10 11 12 12 12 11 12 11 10 9 9 8 7 7 6 6 6 5 6 6 6 7 7 6 6 6 6 5 4 3 2 1 1 0 0 0 1 2 2 2 3
4 3 3 4 5 6 7 8 9 9 10 10 10 10 11 10 9 9 8 7 7 6 6 5 5 5 5 5 6 6 6 6 6 6 6 4 3 2 1 1 0 0 0 1 2 2 3 4 4
5 4 3 1 2 3 4 5 6 8 8 8 8 9 9 9 8 8 7 7 6 5 5 4 4 4 5 5 5 5 6 6 6 6 5 4 3 2 1 1 0 1 1 2 2 3 3 4 4
5 5 4 2 1 2 4 4 5 6 6 6 6 7 7 7 7 7 6 6 5 4 4 3 3 4 4 4 4 5 5 6 6 5 4 3 3 2 1 0 1 1 2 3 4 4 4 4 5
6 6 5 4 3 2 3 3 4 4 4 5 5 5 6 6 6 5 5 5 5 4 3 3 3 4 4 4 4 3 3 4 4 4 4 3 2 1 0 1 2 2 3 4 5 5 5 5 5
9 9 8 6 5 5 5 5 4 4 4 5 5 5 5 5 5 4 4 4 4 4 3 2 3 3 3 3 3 3 3 3 3 3 3 3 2 1 1 2 2 3 4 4 5 4 4 5 5
11 11 10 9 8 8 7 7 6 5 4 4 4 4 5 5 3 4 5 3 3 3 2 1 1 2 2 2 2 3 3 3 3 4 4 3 2 2 2 3 3 4 5 5 6 6 6 5 6
12 12 12 12 11 11 10 8 7 7 6 5 5 5 4 4 4 3 4 3 2 2 2 1 0 1 1 2 2 3 3 4 3 4 4 4 3 3 3 4 5 6 6 6 6 7 7 6 6
14 13 13 13 14 13 12 10 8 8 7 7 7 6 5 5 5 4 3 3 3 3 2 2 1 0 1 1 2 3 4 4 5 5 5 5 5 5 5 6 7 7 7 7 7 8 8 8 8
14 15 14 15 15 15 14 14 12 11 9 8 7 7 6 6 6 5 4 3 3 4 5 4 3 2 2 3 3 4 5 5 6 6 6 6 6 6 7 7 8 8 8 8 8 9 9 10 10
15 15 16 17 17 18 16 17 14 12 11 10 9 9 8 7 7 7 6 5 4 5 6 6 5 5 5 5 5 5 5 6 6 7 7 7 7 8 8 9 9 9 10 10 10 10 11 11 11
16 16 17 17 18 17 17 18 14 13 13 12 12 10 10 9 9 8 7 7 7 7 8 8 8 7 7 7 7 7 7 7 8 8 9 9 9 10 10 10 11 11 11 11 11 12 12 11 12
16 16 17 18 17 16 16 17 14 14 14 14 14 13 11 11 11 10 9 9 10 10 10 10 10 10 9 9 9 9 8 9 10 10 11 11 12 12 12 12 12 12 12 13 13 13 13 13 13
16 16 17 19 19 18 17 16 14 14 14 15 14 14 13 12 12 12 11 11 11 11 12 12 12 12 12 11 11 11 11 11 12 12 13 13 14 14 14 14 14 15 15 15 15 15 14 15 15
18 17 18 19 20 20 18 17 15 15 16 15 15 15 15 15 14 14 14 13 11 11 12 14 14 13 13 13 13 13 14 14 14 15 15 16 16 17 17 17 17 17 17 17 17 16 16 17 17
19 20 19 19 20 20 20 17 16 17 18 17 16 16 17 17 16 15 15 16 15 14 14 14 15 16 16 16 15 16 16 16 16 17 18 18 19 19 20 20 20 20 19 19 19 19 18 18 18
21 21 21 21 21 22 22 20 18 18 18 18 18 18 18 19 18 18 17 18 18 18 18 18 17 17 18 18 18 18 19 19 19 20 20 20 20 21 22 22 22 22 22 22 21 21 20 20 20
Wind_Direction
88 90 84 84 80 79 77 75 73 72 70 68 66 65 65 70 73 79 82 83 96 115 119 125 124 125 123 119 116 118 118 119 116 114 112 110 109 109 106 103 104 102 104 104 103 105 109 110 111
85 84 83 82 78 79 77 73 69 66 65 65 64 63 61 68 71 74 81 85 95 112 120 128 127 125 125 125 124 123 121 119 120 118 119 118 115 111 109 104 102 101 103 103 103 102 108 107 108
83 79 80 78 76 73 74 71 68 63 61 62 62 61 57 61 67 73 84 87 96 107 118 126 125 126 127 128 127 122 120 119 120 120 122 120 118 113 109 107 104 104 103 102 103 103 104 105 111
80 77 75 74 73 71 71 68 64 60 59 60 62 59 58 59 66 74 81 85 101 109 117 120 121 122 125 133 132 124 120 119 120 124 126 123 116 113 114 114 111 108 103 100 105 106 104 105 109
82 78 72 68 68 69 68 65 63 59 58 58 61 61 59 55 64 75 84 87 101 110 111 108 110 118 128 132 134 129 126 124 124 125 126 128 121 117 115 118 117 110 105 103 102 100 102 105 110
84 79 73 68 66 66 65 63 62 58 56 55 57 59 58 54 61 77 88 88 99 105 100 99 107 113 122 132 136 135 132 129 132 132 128 125 123 118 116 124 120 112 111 113 109 104 99 101 112
83 80 77 72 66 62 60 60 59 58 54 52 53 55 54 54 59 74 88 94 99 106 105 103 104 112 116 128 136 141 136 135 135 130 130 126 121 124 125 128 125 120 113 107 107 100 91 97 114
79 78 79 74 68 62 60 60 58 55 51 49 50 52 51 51 57 71 84 95 99 104 105 104 108 114 119 123 131 139 145 142 137 131 131 127 127 128 127 130 125 116 100 96 97 87 78 87 97
75 81 79 76 72 64 61 61 58 52 51 51 50 51 50 51 57 69 84 93 96 99 101 103 110 115 118 122 130 137 146 143 137 135 134 133 128 125 125 119 117 109 89 78 94 88 70 89 95
76 76 75 74 73 66 59 57 56 52 50 52 52 51 51 53 57 64 80 89 94 101 100 104 113 119 117 119 131 140 145 143 143 138 134 137 133 125 124 115 112 115 113 103 111 107 92 66 36
83 77 74 73 69 67 63 57 53 50 49 50 48 49 51 51 54 60 73 85 88 92 98 106 112 122 124 121 129 138 137 137 139 135 138 140 136 130 124 120 115 121 116 124 109 91 116 14 339
92 81 74 73 70 67 65 59 54 51 49 50 47 45 47 49 55 62 70 79 86 90 97 105 106 116 126 131 130 131 135 138 139 135 137 139 137 125 114 117 119 129 108 76 88 102 260 272 298
95 79 73 75 71 67 64 58 53 51 47 48 46 45 44 49 55 61 68 75 80 87 94 96 99 115 123 133 133 135 136 140 144 139 141 146 144 131 120 121 124 111 98 119 37 360 310 304 308
109 91 82 77 65 62 62 57 53 48 44 41 41 43 45 48 55 60 65 68 70 76 84 89 93 115 129 134 138 138 141 148 154 152 151 148 141 126 106 114 131 87 53 253 301 309 309 301 301
155 126 104 79 58 49 49 52 51 45 42 39 38 40 42 47 52 55 60 62 64 71 80 86 94 107 123 135 146 147 145 147 155 155 152 149 141 132 108 95 180 280 357 333 324 314 319 310 305
193 187 183 130 50 37 41 46 44 39 38 38 35 33 33 42 48 50 52 53 58 66 78 83 92 101 118 130 146 147 145 141 149 155 154 150 145 134 111 75 353 313 318 329 334 330 326 316 309
218 213 214 228 286 2 19 32 32 29 30 26 23 25 28 32 41 44 44 45 47 55 68 77 90 99 116 124 136 140 144 147 149 150 145 143 146 141 122 79 303 293 300 309 314 312 321 316 313
231 227 227 231 251 303 332 346 358 1 7 5 359 7 11 19 28 34 32 32 35 39 48 67 77 90 108 118 130 136 146 152 154 152 150 143 144 155 161 349 340 319 312 311 314 311 312 310 308
236 237 235 240 255 275 289 300 312 325 333 339 338 344 350 1 14 17 13 17 22 25 34 59 77 88 103 116 127 140 157 160 162 167 165 159 165 188 262 308 313 311 312 316 316 315 308 306 305
237 237 240 248 260 267 269 277 286 297 304 319 327 333 333 339 355 356 352 351 7 7 12 46 86 95 109 127 142 144 160 169 181 191 193 194 201 229 265 295 306 311 311 308 305 307 303 300 299
239 242 244 248 252 259 262 265 275 280 288 299 305 312 316 311 316 319 327 323 307 324 328 311 23 110 128 149 166 171 172 177 192 209 213 218 236 252 277 287 295 301 303 302 302 297 297 297 296
242 246 249 249 250 253 259 261 265 271 275 288 296 290 293 294 293 290 289 292 285 275 272 287 279 273 208 191 193 195 199 201 209 219 223 239 253 264 279 288 291 292 296 298 299 293 291 288 288
247 247 250 252 255 256 258 262 263 268 266 272 279 275 280 285 275 268 265 276 277 265 259 256 251 246 245 244 229 220 214 218 226 233 242 253 260 267 276 286 289 291 295 296 292 288 287 285 285
250 251 253 255 258 260 260 263 263 263 266 265 265 271 271 272 264 254 250 262 267 263 258 254 254 252 252 248 240 238 233 235 242 247 250 256 264 270 274 281 285 288 291 294 289 286 287 286 284
252 253 255 257 259 262 261 262 261 259 260 259 260 264 265 261 260 260 256 263 263 261 255 251 252 251 248 244 241 243 246 246 247 251 253 259 265 270 274 277 282 286 288 290 291 289 288 286 283
251 253 257 261 263 263 261 262 260 258 261 259 259 262 264 262 262 263 261 266 269 263 253 250 252 251 249 247 245 244 254 257 256 258 260 262 265 270 276 279 281 284 287 289 291 291 290 288 285
249 255 258 259 259 262 263 266 265 263 264 263 261 260 262 265 267 268 270 269 268 265 254 251 254 255 253 252 252 255 261 262 262 263 263 264 267 271 276 279 279 282 284 285 287 289 288 287 289
249 254 256 257 261 266 268 269 272 269 264 265 264 259 261 267 271 271 273 274 272 269 261 253 253 255 256 257 257 260 262 262 264 264 264 265 267 270 273 275 276 278 279 282 284 285 287 288 288
252 255 258 261 264 268 273 272 273 275 270 265 263 261 260 262 267 273 274 273 273 271 268 263 258 257 260 261 261 263 266 266 266 267 268 270 268 269 270 272 273 274 275 278 281 282 284 286 287
253 256 260 265 269 270 273 275 275 276 272 267 266 264 264 263 264 268 271 272 272 273 272 269 267 265 265 265 264 267 270 270 269 270 270 271 271 271 269 270 272 273 275 276 277 279 280 282 284
Height
5883 5883 5883 5883 5883 5883 5881 5881 5880 5880 5880 5880 5880 5879 5879 5879 5880 5882 5881 5879 5880 5880 5880 5881 5882 5883 5884 5885 5886 5887 5888 5890 5891 5892 5893 5894 5894 5895 5896 5896 5897 5898 5898 5899 5900 5900 5900 5901 5901
5885 5886 5886 5886 5885 5884 5883 5882 5882 5882 5882 5881 5880 5880 5880 5880 5880 5880 5880 5880 5880 5880 5881 5882 5883 5884 5885 5886 5887 5888 5889 5891 5892 5893 5894 5895 5896 5896 5897 5898 5899 5899 5900 5900 5901 5901 5902 5902 5902
5888 5888 5889 5888 5886 5886 5885 5884 5884 5883 5883 5882 5882 5882 5881 5881 5881 5881 5881 5881 5881 5881 5882 5882 5884 5885 5886 5887 5888 5889 5890 5891 5893 5894 5895 5896 5897 5898 5899 5899 5900 5900 5901 5901 5902 5903 5903 5903 5904
5891 5891 5891 5890 5888 5888 5887 5886 5885 5885 5885 5884 5883 5883 5882 5882 5882 5882 5882 5882 5882 5883 5883 5884 5885 5886 5887 5888 5889 5890 5891 5893 5894 5895 5896 5897 5898 5899 5900 5900 5901 5901 5902 5903 5903 5903 5904 5904 5905
5893 5893 5893 5891 5890 5890 5889 5888 5887 5887 5886 5885 5885 5884 5883 5883 5882 5882 5883 5883 5883 5883 5884 5885 5886 5887 5887 5888 5890 5891 5892 5893 5895 5896 5897 5898 5899 5900 5901 5901 5902 5902 5903 5903 5904 5904 5905 5905 5905
5895 5894 5894 5893 5893 5892 5891 5890 5889 5889 5888 5887 5886 5885 5885 5884 5884 5884 5884 5884 5884 5884 5885 5886 5887 5888 5888 5889 5890 5892 5893 5894 5895 5897 5898 5899 5900 5901 5901 5902 5902 5903 5904 5904 5904 5905 5905 5906 5906
5897 5896 5895 5895 5894 5894 5893 5892 5891 5891 5890 5889 5888 5887 5886 5886 5886 5885 5885 5886 5886 5886 5887 5887 5888 5889 5889 5890 5891 5892 5894 5895 5896 5897 5899 5900 5901 5901 5902 5903 5903 5904 5904 5905 5905 5905 5906 5906 5906
5898 5898 5897 5896 5896 5896 5895 5894 5893 5893 5892 5891 5890 5889 5888 5888 5887 5887 5887 5887 5887 5888 5888 5889 5889 5890 5891 5891 5892 5893 5894 5896 5897 5898 5899 5900 5901 5902 5903 5903 5904 5904 5905 5905 5906 5906 5906 5907 5907
5900 5900 5898 5898 5898 5898 5897 5896 5896 5895 5894 5893 5892 5891 5890 5890 5889 5889 5889 5889 5889 5889 5889 5890 5890 5891 5891 5892 5892 5894 5895 5896 5898 5899 5900 5901 5902 5903 5903 5904 5904 5905 5905 5905 5906 5906 5907 5907 5907
5901 5901 5901 5901 5900 5900 5899 5898 5897 5897 5896 5895 5894 5893 5892 5891 5891 5891 5890 5890 5890 5890 5891 5891 5891 5892 5893 5893 5893 5894 5895 5897 5899 5900 5901 5902 5903 5903 5904 5904 5905 5905 5905 5906 5906 5906 5907 5907 5907
5903 5903 5902 5902 5902 5901 5901 5900 5900 5899 5898 5897 5896 5895 5894 5893 5893 5893 5892 5892 5892 5892 5892 5892 5892 5893 5893 5894 5895 5895 5896 5898 5899 5900 5901 5902 5903 5904 5904 5905 5905 5905 5906 5906 5906 5907 5907 5907 5908
5904 5904 5904 5904 5903 5903 5902 5902 5902 5901 5901 5899 5898 5897 5895 5895 5895 5894 5894 5894 5893 5893 5893 5894 5894 5894 5894 5895 5896 5896 5897 5899 5900 5901 5902 5903 5904 5904 5905 5905 5906 5906 5906 5906 5906 5907 5907 5907 5907
5905 5905 5905 5905 5905 5905 5904 5904 5903 5902 5902 5901 5900 5899 5898 5897 5896 5896 5895 5895 5895 5895 5895 5895 5895 5895 5895 5896 5897 5897 5898 5899 5900 5901 5902 5903 5904 5905 5905 5906 5906 5906 5906 5907 5907 5907 5907 5907 5907
5906 5906 5906 5906 5906 5906 5905 5905 5905 5904 5903 5903 5902 5901 5900 5899 5898 5898 5897 5897 5896 5896 5896 5896 5896 5896 5896 5897 5898 5898 5899 5900 5901 5902 5903 5904 5904 5905 5906 5906 5906 5906 5907 5907 5907 5907 5907 5907 5907
5906 5907 5907 5907 5906 5906 5907 5906 5905 5905 5905 5904 5904 5903 5902 5901 5900 5900 5899 5898 5898 5898 5897 5897 5897 5897 5897 5898 5898 5899 5900 5900 5901 5902 5903 5904 5905 5905 5906 5906 5907 5907 5907 5907 5907 5907 5907 5907 5906
5906 5907 5907 5907 5907 5907 5908 5907 5907 5906 5906 5906 5905 5904 5903 5902 5902 5901 5900 5900 5899 5899 5898 5898 5898 5898 5898 5898 5899 5900 5900 5901 5902 5903 5904 5904 5905 5905 5906 5906 5907 5907 5907 5907 5907 5907 5906 5906 5906
5906 5906 5906 5907 5907 5907 5907 5907 5907 5907 5906 5906 5906 5905 5904 5903 5903 5902 5901 5901 5900 5900 5899 5899 5899 5899 5899 5899 5900 5901 5901 5902 5903 5903 5904 5905 5905 5906 5906 5907 5907 5907 5907 5907 5906 5906 5906 5905 5905
5905 5905 5906 5906 5906 5907 5907 5907 5907 5906 5906 5906 5906 5905 5904 5904 5903 5902 5902 5902 5901 5901 5900 5900 5900 5899 5899 5900 5900 5901 5902 5902 5903 5904 5904 5905 5905 5906 5906 5907 5907 5907 5906 5906 5906 5905 5905 5904 5904
5904 5904 5905 5906 5906 5906 5906 5906 5906 5906 5905 5905 5905 5905 5904 5903 5903 5902 5902 5902 5902 5901 5901 5901 5900 5900 5900 5900 5901 5901 5902 5903 5903 5904 5904 5905 5906 5906 5906 5907 5906 5906 5906 5905 5905 5904 5904 5904 5903
5902 5903 5904 5905 5905 5905 5905 5905 5905 5905 5905 5905 5904 5904 5903 5903 5902 5902 5902 5901 5901 5901 5901 5901 5901 5901 5900 5900 5901 5901 5902 5903 5903 5904 5904 5905 5905 5906 5906 5906 5906 5906 5905 5904 5904 5903 5903 5903 5902
5900 5901 5902 5902 5902 5903 5903 5904 5904 5904 5904 5904 5904 5903 5903 5902 5902 5902 5902 5901 5901 5900 5900 5900 5901 5901 5900 5900 5901 5901 5902 5902 5903 5903 5904 5905 5905 5905 5905 5905 5905 5904 5904 5903 5902 5902 5902 5901 5901
5898 5899 5899 5899 5900 5900 5902 5902 5903 5902 5902 5902 5902 5902 5901 5901 5901 5900 5901 5900 5900 5900 5900 5900 5900 5900 5900 5900 5900 5901 5901 5902 5902 5903 5903 5904 5904 5904 5904 5904 5903 5903 5902 5901 5901 5900 5899 5899 5899
5895 5896 5896 5897 5897 5898 5899 5899 5901 5900 5900 5900 5900 5900 5900 5900 5899 5899 5899 5899 5899 5898 5898 5899 5899 5899 5899 5899 5899 5899 5900 5900 5901 5901 5902 5902 5902 5902 5902 5902 5902 5901 5900 5899 5899 5898 5897 5897 5897
5892 5893 5893 5894 5894 5895 5896 5897 5898 5898 5898 5898 5898 5898 5898 5898 5898 5897 5897 5897 5897 5897 5897 5897 5897 5897 5898 5898 5898 5898 5898 5899 5899 5900 5900 5901 5901 5901 5901 5900 5900 5899 5898 5897 5897 5896 5895 5894 5894
5889 5890 5891 5891 5891 5892 5893 5893 5895 5895 5896 5896 5896 5896 5896 5896 5896 5896 5895 5895 5895 5894 5894 5894 5895 5895 5896 5896 5896 5896 5897 5897 5897 5898 5898 5898 5898 5898 5898 5898 5898 5897 5896 5895 5894 5893 5892 5891 5891
5886 5887 5888 5888 5888 5889 5889 5889 5892 5892 5892 5893 5893 5893 5893 5893 5893 5893 5893 5892 5892 5891 5891 5892 5893 5893 5893 5893 5893 5894 5894 5895 5895 5895 5895 5896 5895 5895 5895 5895 5895 5894 5894 5893 5891 5890 5889 5888 5887
5882 5882 5884 5884 5884 5885 5885 5886 5888 5888 5889 5889 5890 5890 5890 5890 5890 5890 5890 5890 5889 5889 5889 5889 5889 5890 5890 5890 5891 5891 5892 5892 5892 5892 5892 5892 5892 5892 5892 5891 5891 5891 5890 5889 5888 5887 5886 5885 5884
5878 5878 5879 5880 5880 5880 5882 5883 5884 5885 5885 5886 5886 5886 5887 5887 5887 5887 5887 5886 5886 5886 5886 5886 5886 5887 5887 5887 5887 5888 5888 5888 5888 5888 5888 5888 5888 5888 5888 5887 5887 5886 5886 5885 5884 5883 5882 5882 5880
5874 5875 5875 5875 5876 5876 5877 5880 5880 5881 5881 5881 5882 5882 5882 5883 5883 5883 5883 5883 5883 5883 5883 5883 5883 5883 5883 5883 5883 5883 5884 5884 5884 5884 5884 5884 5883 5883 5883 5883 5882 5881 5881 5880 5880 5879 5878 5877 5876
5869 5870 5870 5871 5871 5871 5872 5876 5876 5876 5876 5877 5877 5878 5878 5878 5878 5878 5878 5878 5878 5878 5879 5879 5879 5879 5879 5879 5879 5879 5879 5879 5879 5879 5878 5878 5878 5877 5877 5877 5876 5876 5875 5874 5874 5873 5873 5872 5871